This is the latest recevied weather packets stored in our database for station/object K6CED. If no packets are shown the sender has not sent any weather packets the latest 10 day(s).
| Time | Temp. | Humidity | Pressure | Rain* | Wind** | Luminosity | Snow |
|---|---|---|---|---|---|---|---|
| 1787537534 | 30° C | 49% | 1015 hPa | 0 mm | - | 13 W/m² | - |
| 1787537229 | 30.56° C | 48% | 1014.8 hPa | 0 mm | - | 16 W/m² | - |
| 1787536928 | 31.11° C | 47% | 1014.9 hPa | 0 mm | - | 20 W/m² | - |
| 1787536627 | 31.11° C | 46% | 1015.1 hPa | 0 mm | - | 23 W/m² | - |
| 1787536324 | 31.67° C | 45% | 1014.9 hPa | 0 mm | - | 26 W/m² | - |
| 1787536014 | 32.22° C | 44% | 1015 hPa | 0 mm | - | 28 W/m² | - |
| 1787535708 | 32.78° C | 42% | 1015 hPa | 0 mm | - | 37 W/m² | - |
| 1787535398 | 33.33° C | 41% | 1015 hPa | 0 mm | - | 43 W/m² | - |
| 1787535093 | 33.89° C | 41% | 1015 hPa | 0 mm | - | 52 W/m² | - |
| 1787534792 | 33.89° C | 41% | 1014.6 hPa | 0 mm | - | 59 W/m² | - |
| 1787534492 | 35° C | 37% | 1014.5 hPa | 0 mm | - | 67 W/m² | - |
| 1787534186 | 35.56° C | 36% | 1014.4 hPa | 0 mm | - | 78 W/m² | - |
| 1787533882 | 36.11° C | 34% | 1014.4 hPa | 0 mm | - | 92 W/m² | - |
| 1787533579 | 36.11° C | 33% | 1014.2 hPa | 0 mm | - | 106 W/m² | - |
| 1787533275 | 35.56° C | 33% | 1014.3 hPa | 0 mm | - | 113 W/m² | - |
| 1787532969 | 36.11° C | 32% | 1014.6 hPa | 0 mm | - | 124 W/m² | - |
| 1787532665 | 36.11° C | 32% | 1014.2 hPa | 0 mm | - | 141 W/m² | - |
| 1787532360 | 36.67° C | 32% | 1014.3 hPa | 0 mm | - | 158 W/m² | - |
| 1787532056 | 36.67° C | 31% | 1013.9 hPa | 0 mm | - | 176 W/m² | - |
| 1787531751 | 37.22° C | 30% | 1013.9 hPa | 0 mm | - | 196 W/m² | - |
| 1787531447 | 37.22° C | 31% | 1013.9 hPa | 0 mm | - | 212 W/m² | - |
| 1787531143 | 37.22° C | 30% | 1013.9 hPa | 0 mm | - | 227 W/m² | - |
| 1787530838 | 37.78° C | 30% | 1013.7 hPa | 0 mm | - | 245 W/m² | - |
| 1787530533 | 37.78° C | 29% | 1013.7 hPa | 0 mm | - | 265 W/m² | - |
| 1787530232 | 38.33° C | 28% | 1013.7 hPa | 0 mm | - | 284 W/m² | - |
* Rain latest hour (hover to see other rain measurements)
** Current wind speed in m/s (hover to see current wind gust speed)